Location: Campbell Hill Rural Fire District 162
(37.9291°N, 89.5498°W)
Time: 22:47:44
(UTC+00:00)

Daily predictions for brighter satellites

Satellite Brightness Start Highest point End
(mag) Time Altitude Azimuth Time Altitude Azimuth Time Altitude Azimuth
Cosmos 1733 0.8 12:02:10 10° S 12:03:46 88° SE 12:05:24 10° N
Helios 1A Rocket 2.9 12:00:41 10° S 12:03:48 37° W 12:06:52 10° NNW
BREEZE-M DEB (TANK) 2.2 12:03:02 10° SW 12:05:49 86° NNW 12:08:16 10° NE
Cosmos 2026 Rocket 4.3 12:00:17 10° SW 12:05:53 39° WNW 12:11:34 10° N
Cosmos 2082 Rocket 3.9 12:06:06 12° NW 12:06:06 12° NW 12:08:14 10° NNW
Cosmos 1626 Rocket 3.5 12:02:06 10° S 12:06:31 81° W 12:10:56 10° N
SL-16 R/B 2.2 12:03:15 10° NNW 12:08:50 63° WSW 12:14:24 10° S
Cosmos 1937 Rocket 4.4 12:08:10 10° NW 12:12:24 28° W 12:16:44 10° SSW
SL-4 R/B 3.7 12:18:37 10° NNW 12:20:34 15° NNE 12:22:30 10° ENE
ARIANE 5 R/B 3.3 12:16:16 10° NNE 12:21:26 59° ESE 12:26:34 10° S
IRIDIUM 104 4.4 12:18:29 10° SSW 12:23:38 61° W 12:28:48 10° N
ISS 0.0 12:23:15 10° SSE 12:24:27 12° SE 12:25:39 10° ESE
COSMO-SKYMED 1 3.7 12:21:13 10° SSW 12:24:28 22° W 12:27:45 10° NW
USA 267 4.5 12:20:24 10° NE 12:26:40 47° SE 12:32:54 10° SSW
Cosmos-2242 3.6 12:23:10 10° NNW 12:26:58 33° W 12:30:44 10° SSW
OAO 2 Rocket 4.1 12:23:12 10° WSW 12:28:13 52° SSE 12:33:09 10° E
Cosmos 2278 4.1 12:27:08 10° NW 12:32:29 45° WSW 12:37:47 10° S
Okean 1-7 Rocket 4.1 12:28:04 10° S 12:32:32 66° E 12:36:59 10° NNE
Cosmos 1814 Rocket 4.5 12:28:33 10° SW 12:33:22 37° WNW 12:38:16 10° N
BREEZE-M DEB (TANK) 3.6 12:31:23 10° NW 12:34:45 54° NNE 12:44:22 10° ESE
Cosmos 1553 Rocket 4.1 12:28:33 10° NNW 12:34:50 61° W 12:41:07 10° S
ATLAS 2AS CENTAUR R/B 2.8 12:31:26 10° SW 12:38:34 81° WNW 12:45:31 10° NNE
Gbstr 26 Del rocket 2.8 23:00:01 10° SW 23:04:22 79° SE 23:08:11 10° NE
Landsat 7 4.3 23:02:31 10° SE 23:06:45 36° ENE 23:11:01 10° N
UNK 3.7 23:03:36 10° NNE 23:08:10 73° ESE 23:12:42 10° S
Cosmos 1570 Rocket 4.1 23:05:48 10° NNW 23:11:10 90° ENE 23:16:27 10° SSE
Cosmos 1486 Rocket 4.3 23:09:37 10° SSW 23:14:47 71° WNW 23:20:01 10° NNE
Cosmos 2279 Rocket 4.4 23:12:53 10° SSW 23:19:01 67° W 23:25:14 10° N
Cosmos 1743 2.2 23:16:15 10° N 23:19:28 62° E 23:22:39 10° SSE
Cosmos 1867 4.5 23:16:53 10° N 23:21:30 27° NE 23:26:05 10° ESE
Aureole 1 Rocket 4.5 23:22:55 10° SE 23:25:47 19° E 23:28:37 12° NE
Cosmos 773 Rocket 4.0 23:21:27 10° NNW 23:26:42 88° ENE 23:31:57 10° SSE
Cosmos 2098 Rocket 3.6 23:23:14 10° SSW 23:26:59 58° W 23:31:27 10° N
Cosmos 1825 Rocket 4.2 23:23:59 10° NNE 23:27:51 31° ENE 23:31:39 10° SE
Cosmos 1758 Rocket 4.0 23:25:59 10° NNW 23:30:14 65° W 23:34:27 10° S
Cosmos 2297 Rocket 2.2 23:24:57 10° NNW 23:30:36 69° ENE 23:36:13 10° SSE
NOSS 2-3 (C) 3.6 23:28:08 10° S 23:31:30 38° ESE 23:34:01 15° NE
Cosmos 2151 2.8 23:27:46 10° N 23:31:55 73° E 23:36:04 10° SSE
IRIDIUM 106 4.3 23:26:43 10° N 23:31:57 73° E 23:37:08 10° S
Cosmos 990 Rocket 4.0 23:28:29 10° S 23:33:31 62° ESE 23:38:34 10° NNE
ARIANE 5 R/B 2.4 23:29:30 10° SSE 23:34:30 71° ENE 23:39:35 10° N
IRS-P3 4.3 23:31:17 10° SE 23:36:24 50° ENE 23:41:31 10° N
USA 238 DEB 3.8 23:31:25 10° S 23:37:01 44° ESE 23:42:20 13° NE
USA 238 3.8 23:31:32 10° S 23:37:07 43° ESE 23:42:24 13° NE
Cosmos 2058 Rocket 4.2 23:37:47 10° SE 23:41:19 23° E 23:43:32 16° NE
Cosmos 1933 3.2 23:41:17 10° S 23:45:06 87° W 23:48:57 10° N
SPOT 1/Viking Rocket 3.9 23:40:38 10° SE 23:45:28 41° ENE 23:50:20 10° N
SJ-12 3.6 23:43:43 10° SSE 23:47:29 90° NE 23:51:16 10° NNW
Meteor 1-25 Rocket 4.2 23:42:32 10° N 23:48:20 69° E 23:54:03 10° SSE
BlueWalker 3 1.8 23:45:43 10° NW 23:49:21 78° SW 23:52:57 10° SE
Cosmos 1607 3.9 23:43:08 10° NNW 23:49:23 74° ENE 23:55:41 10° SE
SAR-Lupe-3 3.5 23:47:41 15° NNE 23:49:38 89° NW 23:52:08 10° SSW
Cosmos 1980 Rocket 2.5 23:45:34 10° S 23:50:55 45° ESE 23:55:10 16° NE
Hubble Space Telescope 3.1 23:51:51 10° S 23:53:05 11° SSE 23:54:19 10° SE
AQUARIUS 4.0 23:49:20 10° SSE 23:53:43 86° ENE 23:58:09 10° NNW
Cosmos 1076 Rocket 3.9 23:51:40 10° N 23:55:44 39° E 23:59:46 10° SSE
